Weather History for KFNB - October, 2013

Change the Weather History Date:

Saturday, October 26, 2013

  Actual Average Record
Temperature  
Mean Temperature 46 °F -  
Max Temperature 57 °F 64 °F 86 °F (2014)
Min Temperature 32 °F 38 °F 25 °F (1957)
Degree Days  
Heating Degree Days 19    
Moisture  
Dew Point 32 °F    
Average Humidity 62    
Maximum Humidity 89    
Minimum Humidity 37    
Precipitation  
Precipitation 0.00 in - - ()
Sea Level Pressure  
Sea Level Pressure 30.15 in    
Wind  
Wind Speed 6 mph (NW)    
Max Wind Speed 14 mph    
Max Gust Speed 18 mph    
Visibility 10 miles    
Events      
Averages and records for this station are not official NWS values.
T = Trace of Precipitation, MM = Missing Value Source: NWS Daily Summary

Daily Weather History Graph

Daily Weather History Graph

Search for Another Location

Airport or City:

Trip Planner

Search our weather history database for the weather conditions in past years. The results will help you decide how hot, cold, wet, or windy it might be!

Date:

Astronomy

Oct. 26, 2013 Rise Set
Actual Time 7:45 AM CDT 6:26 PM CDT
Civil Twilight 7:17 AM CDT 6:54 PM CDT
Nautical Twilight 6:45 AM CDT 7:26 PM CDT
Astronomical Twilight 6:14 AM CDT 7:57 PM CDT
Moon No Moon Rise 2:01 PM CDT (10/26)
Length of Visible Light 11h 37m
Length of Day
10h 41m
Waning Gibbous, 53% of the Moon is Illuminated
Oct 26
Waning Gibbous
Oct 26
Last Quarter
Nov 3
New
Nov 9
First Quarter
Nov 17
Full

Hourly Weather History & Observations

Time (CDT) Temp. Windchill Dew Point Humidity Pressure Visibility Wind Dir Wind Speed Gust Speed Precip Events Conditions
12:53 AM 43.0 °F 39.5 °F 30.0 °F 60% 30.10 in 10.0 mi South 5.8 mph - N/A   Clear
1:53 AM 37.0 °F - 30.0 °F 76% 30.08 in 10.0 mi Calm Calm - N/A   Clear
2:53 AM 37.9 °F - 30.9 °F 76% 30.07 in 10.0 mi Calm Calm - N/A   Clear
3:53 AM 37.9 °F - 32.0 °F 79% 30.06 in 10.0 mi Calm Calm - N/A   Clear
4:53 AM 44.1 °F 42.5 °F 37.0 °F 76% 30.04 in 10.0 mi WSW 3.5 mph - N/A   Clear
5:53 AM 42.1 °F 38.4 °F 36.0 °F 79% 30.07 in 10.0 mi West 5.8 mph - N/A   Clear
6:53 AM 37.9 °F 32.7 °F 35.1 °F 89% 30.09 in 10.0 mi WNW 6.9 mph - N/A   Clear
7:53 AM 39.9 °F 34.5 °F 36.0 °F 86% 30.10 in 10.0 mi WNW 8.1 mph - N/A   Clear
8:53 AM 43.0 °F 38.2 °F 37.0 °F 80% 30.14 in 10.0 mi NW 8.1 mph - N/A   Clear
9:53 AM 48.9 °F - 37.0 °F 64% 30.17 in 10.0 mi NNW 10.4 mph 16.1 mph N/A   Clear
10:53 AM 52.0 °F - 35.1 °F 53% 30.19 in 10.0 mi North 10.4 mph - N/A   Clear
11:53 AM 55.0 °F - 34.0 °F 45% 30.19 in 10.0 mi North 12.7 mph 18.4 mph N/A   Clear
12:53 PM 55.9 °F - 33.1 °F 42% 30.20 in 10.0 mi North 13.8 mph 18.4 mph N/A   Clear
1:53 PM 55.9 °F - 30.0 °F 37% 30.19 in 10.0 mi North 11.5 mph 18.4 mph N/A   Clear
2:53 PM 57.0 °F - 32.0 °F 39% 30.18 in 10.0 mi Variable 6.9 mph - N/A   Clear
3:53 PM 57.0 °F - 32.0 °F 39% 30.18 in 10.0 mi NNW 10.4 mph - N/A   Clear
4:53 PM 55.0 °F - 30.9 °F 40% 30.17 in 10.0 mi NNW 10.4 mph - N/A   Clear
5:53 PM 51.1 °F - 28.9 °F 43% 30.17 in 10.0 mi NNW 6.9 mph - N/A   Clear
6:53 PM 46.0 °F 43.1 °F 28.0 °F 50% 30.19 in 10.0 mi NW 5.8 mph - N/A   Clear
7:53 PM 41.0 °F 39.0 °F 28.0 °F 60% 30.20 in 10.0 mi NW 3.5 mph - N/A   Clear
8:53 PM 37.9 °F 35.5 °F 28.0 °F 68% 30.20 in 10.0 mi NW 3.5 mph - N/A   Clear
9:53 PM 37.9 °F 35.5 °F 27.0 °F 65% 30.20 in 10.0 mi WNW 3.5 mph - N/A   Clear
10:53 PM 35.1 °F 32.2 °F 26.1 °F 70% 30.20 in 10.0 mi WNW 3.5 mph - N/A   Clear
11:53 PM 32.0 °F - 26.1 °F 79% 30.19 in 10.0 mi Calm Calm - N/A   Clear